Regional Weather Roundup
Issued by NWS

Home | Current Version | Previous Version | Text Only | Print | Product List | Glossary Off
Versions: 1 2 3 4 5 6 7 8 9 10 11 12 13 14 15 16 17 18 19 20 21 22 23 24 25 26 27 28 29 30 31 32 33 34 35 36 37 38 39 40 41 42 43 44 45 46 47 48 49 50

759
ASUS45 KTFX 291410
RWRMT
MONTANA REGIONAL WEATHER ROUNDUP
NATIONAL WEATHER SERVICE GREAT FALLS MT
800 AM MDT FRI APR 29 2016

NOTE: "FAIR" INDICATES FEW OR NO CLOUDS BELOW 12000 FEET WITH NO
SIGNIFICANT WEATHER AND/OR OBSTRUCTIONS TO VISIBILITY.

MTZ001>007-043-291500-
WEST OF THE DIVIDE

CITY           SKY/WX    TMP DP  RH WIND       PRES   REMARKS
KALISPELL      CLOUDY    42  38  85 CALM      29.92F
MISSOULA       CLOUDY    38  35  89 NW3       29.95S
BUTTE          CLOUDY    34  26  72 S6        29.92F WCI  29
MULLAN PASS    CLOUDY    32  26  78 CALM      29.89F
ANACONDA         N/A     34  28  80 CALM      29.93F
DEER LODGE       N/A     34  28  80 CALM      29.95F
EUREKA           N/A     39  36  87 CALM        N/A
HAMILTON         N/A     37  37 100 CALM      29.93S
LIBBY            N/A     37  34  87 SE3       29.96S
PLAINS           N/A     40  35  82 CALM      29.95F
$$

MTZ008-052>055-291500-
SOUTHWEST MONTANA

CITY           SKY/WX    TMP DP  RH WIND       PRES   REMARKS
BOZEMAN        CLOUDY    36  28  73 CALM      29.96S
DILLON         CLOUDY    36  26  67 NE9       29.91S WCI  29
TWIN BRIDGES     N/A     36  24  62 N12       29.92S WCI  28
$$

MTZ009-010-012-014-046-048-049-054-291500-
EAST SLOPES AND CENTRAL MONTANA

CITY           SKY/WX    TMP DP  RH WIND       PRES   REMARKS
CUT BANK       CLOUDY    35  34  96 E7        29.98S WCI  29
GREAT FALLS    CLOUDY    37  35  92 CALM      29.97S
MALMSTROM AFB  CLOUDY    38  35  89 SE5       29.98F
HELENA         CLOUDY    40  32  73 NW3       29.96F
CHOTEAU          N/A     36  36 100 CALM      29.98S
CONRAD           N/A     36  36 100 E5        30.00F
$$

MTZ011-013-016-021-045-047-050-051-291500-
NORTH CENTRAL MONTANA

CITY           SKY/WX    TMP DP  RH WIND       PRES   REMARKS
HAVRE          CLOUDY    43  35  73 E9        30.03S
LEWISTOWN      CLOUDY    38  30  73 E10       30.00F WCI  31
N BAR RANCH    CLOUDY    32  32 100 CALM      30.03F
CHINOOK          N/A     43  37  81 E9        30.06S
$$

MTZ017>020-022>027-061-062-291500-
NORTHEAST MONTANA

CITY           SKY/WX    TMP DP  RH WIND       PRES   REMARKS
GLASGOW        CLOUDY    43  36  76 E10       30.11S
JORDAN           N/A     40  36  86 E6        30.08S
SIDNEY         MOSUNNY   41  28  60 NE7       30.15S
WOLF POINT     CLOUDY    43  33  68 E9        30.13S
PLENTYWOOD       N/A     45  21  39 E10       30.16F
POPLAR           N/A     43  30  61 E9        30.14S
SCOBEY           N/A     47  22  37 E14       30.11S
$$

MTZ028>42-056>058-291500-
SOUTHCENTRAL AND SOUTHEAST MONTANA

CITY           SKY/WX    TMP DP  RH WIND       PRES   REMARKS
BAKER          CLOUDY    39  34  82 SE8       30.12R
BILLINGS       CLOUDY    36  35  96 NE5       30.03R
LIVINGSTON     CLOUDY    36  30  79 E12       29.97S WCI  28
MILES CITY     CLOUDY    41  34  76 E3        30.10R
EKALAKA          N/A     36  32  85 E8        30.08R WCI  30
FORSYTH          N/A     39  39 100 E8        30.08R
LAUREL           N/A     36  29  76 CALM      30.01R
ROUNDUP          N/A     35  32  89 CALM      29.94S
$$

REGIONAL REPORTS...DAKOTAS

CITY           SKY/WX    TMP DP  RH WIND       PRES   REMARKS
WILLISTON      MOSUNNY   45  28  51 VRB5      30.17F
MINOT          SUNNY     45  21  38 N6        30.21R
DICKINSON      CLOUDY    40  30  67 E9        30.13R
BEACH          CLOUDY    41  36  81 E9        30.15R
CROSBY           N/A     41  23  48 E10       30.22S
TIOGA            N/A     41  23  48 E9        30.23F
WATFORD CITY     N/A     41  27  56 E8        30.17S
BISMARCK       CLOUDY    43  32  65 E6        30.20R
GRAND FORKS    CLOUDY    45  32  60 NE8       30.22R
FARGO          SUNNY     46  37  71 CALM      30.19R
BUFFALO SD       N/A     38  35  89 SE6       30.07R
RAPID CITY     CLOUDY    38  34  85 NE5       30.10F
$$

REGIONAL REPORTS...WYOMING/IDAHO/WASHINGTON

CITY           SKY/WX    TMP DP  RH WIND       PRES   REMARKS
GILLETTE       CLOUDY    36  33  89 S9        30.04F WCI  29
SHERIDAN       CLOUDY    39  33  79 S6        30.03R
BUFFALO WY       N/A    N/A N/A N/A MISG      30.03F
CODY           CLOUDY    36  30  80 CALM      29.99S
YELLOWSTONE LA   N/A     27  21  78 CALM      29.94F
IDAHO FALLS    CLOUDY    40  34  79 N5        29.89F
SALMON         CLOUDY    39  32  75 CALM      29.91S
BOISE          MOSUNNY   47  39  74 NW3       29.90S
SPOKANE        CLOUDY    49  36  61 CALM      29.93F
$$

REGIONAL REPORTS...ALBERTA

CITY           SKY/WX    TMP DP  RH WIND       PRES   REMARKS
EDMONTON       MOSUNNY   48  30  49 S15       29.94S
CALGARY        PTSUNNY   39  30  70 S15       29.93F WCI  31
LETHBRIDGE     CLOUDY    36  34  93 S7        29.99S WCI  30
MEDICINE HAT   CLOUDY    43  37  81 E5        30.04S
WATERTON GATE    N/A     34  32  93 N1          N/A
CARDSTON         N/A     37  34  87 SE5         N/A
ONEFOUR          N/A     39  34  81 E15         N/A  WCI  31
$$

REGIONAL REPORTS...SASKATCHEWAN

CITY           SKY/WX    TMP DP  RH WIND       PRES   REMARKS
SWIFT CURRENT  CLOUDY    43  30  61 E7        30.10S
REGINA         MOSUNNY   45  16  31 SE13      30.20F
SASKATOON      MOSUNNY   46  23  39 SE10      30.18S
CYPRESS HILLS    N/A     36  28  75 SE7         N/A  WCI  30
VAL MARIE        N/A     39  36  87 E8          N/A
ROCKGLEN         N/A     41  25  52 E3          N/A
ASSINIBOIA       N/A     48  34  57 SE12        N/A
$$




USA.gov is the U.S. government's official web portal to all federal, state and local government web resources and services.